RH
57 56 55 52 49 46 45 43 41 41 45 47 47 46 44 43 44 45 45 45 45 43 40 42 41 36 32 30 30 31 32 31 31 32 33 34 33 31 28 25 21 17 14 12 11 10 10 10 11 11 11 11 10 11 13 15 15 13 11 10 10 11 13 14 13 12 11 11 11 12 12 13 13 13 13 14 15 15 11 11 11 12 13 14 15 16 17 19 19 18 16 17 18 21 27 29 30 30 30 29 27 25 24
58 58 57 54 52 51 50 48 46 46 49 49 49 48 46 46 46 46 46 46 46 44 41 42 39 35 31 30 30 31 32 31 31 32 34 34 33 31 29 26 21 17 13 12 11 10 10 11 11 11 11 11 11 13 16 15 13 11 10 10 10 11 12 12 12 12 12 12 12 12 12 13 13 13 14 14 14 13 12 12 12 13 13 14 15 15 16 17 18 18 17 17 19 23 31 31 30 28 28 27 26 24 23
57 59 57 55 55 55 54 52 51 50 51 50 51 51 49 48 48 48 48 48 47 45 41 41 38 34 31 30 30 31 32 31 32 33 34 35 34 32 30 26 22 17 13 12 11 11 10 11 11 11 11 11 13 16 17 14 12 10 10 11 11 11 11 12 12 12 12 11 12 12 12 12 12 13 13 12 12 12 12 12 13 13 14 14 15 15 16 17 17 18 17 18 21 25 32 31 29 28 27 26 25 24 23
56 59 58 56 57 58 57 54 53 53 52 51 53 53 50 51 51 51 50 49 48 45 40 40 37 33 32 31 31 32 32 32 32 33 35 35 35 33 31 27 22 16 12 11 11 11 10 11 11 11 11 13 15 16 15 13 11 11 11 11 11 11 11 11 11 11 12 11 11 11 11 12 12 12 12 12 12 12 12 13 13 14 14 14 15 15 16 17 17 18 18 20 24 29 33 32 31 30 28 27 26 25 24
55 59 60 59 59 60 58 55 53 53 53 54 55 55 52 54 54 54 52 51 48 44 38 38 36 34 33 32 32 32 32 32 32 33 35 35 35 33 31 27 21 15 12 11 11 10 10 10 10 11 11 13 15 15 13 12 11 11 11 11 11 11 12 12 12 12 12 12 12 12 12 12 12 12 12 12 12 12 13 13 13 14 14 15 16 17 17 18 19 20 21 25 30 34 34 32 31 30 28 27 26 25 25
54 58 61 61 61 61 59 55 52 51 51 58 61 60 57 57 57 56 54 51 47 42 36 36 35 35 34 33 32 32 32 31 32 33 34 35 34 33 31 26 20 15 12 12 11 11 11 11 11 11 12 14 14 14 13 12 12 12 11 11 11 12 12 12 12 13 12 13 13 12 13 12 12 12 12 12 12 13 13 14 14 15 16 17 18 19 19 20 21 23 26 30 33 35 33 33 31 29 28 28 27 27 26
51 56 60 63 63 62 59 55 51 49 50 60 64 63 61 60 59 58 54 51 46 40 35 35 35 36 35 34 33 33 32 31 32 32 34 34 34 33 31 25 19 14 12 12 12 12 12 11 11 12 13 13 13 13 13 13 12 12 11 10 11 11 12 12 12 12 12 12 12 12 13 13 13 13 12 12 13 13 14 15 16 17 18 19 20 21 22 23 26 31 32 35 34 32 31 32 31 29 28 28 28 28 27
48 52 59 63 66 65 61 57 52 49 51 58 61 62 62 61 60 57 54 51 46 40 34 34 35 37 37 35 34 33 32 31 32 32 33 34 34 33 30 24 18 14 13 13 13 13 12 12 12 12 13 13 13 13 13 13 12 11 11 10 10 11 11 11 12 12 12 12 13 13 13 13 12 13 13 13 14 14 16 17 18 19 20 21 22 23 25 27 29 31 36 37 35 32 31 30 29 29 28 29 29 29 29
49 50 57 62 66 66 64 59 55 52 52 56 59 61 61 61 59 56 53 50 46 40 33 34 35 37 38 36 35 33 32 32 32 32 33 34 34 33 29 22 17 14 13 14 14 14 14 13 13 13 13 13 13 12 12 12 12 11 11 10 10 11 11 11 12 12 13 13 14 14 13 13 13 13 14 14 15 16 18 20 20 21 22 22 22 24 26 29 30 31 34 34 33 31 29 29 28 28 29 29 30 30 30
51 50 55 60 64 66 65 62 58 55 54 57 59 60 61 60 58 55 51 50 46 40 33 34 35 37 38 37 36 34 33 32 32 32 33 34 34 32 28 22 17 14 14 15 15 15 15 14 14 13 13 13 12 12 12 12 12 11 11 11 11 11 12 12 13 13 13 13 14 14 14 14 14 14 15 16 16 18 19 21 22 22 22 23 23 24 25 27 29 30 30 30 30 29 28 28 28 28 29 30 31 31 31
54 53 55 59 62 64 65 63 61 58 56 59 61 61 60 59 56 53 49 49 46 40 34 34 34 36 37 37 36 35 33 32 32 32 33 34 33 32 27 21 17 15 15 16 16 16 16 15 14 13 13 12 12 12 12 12 12 12 12 12 12 12 13 13 14 14 14 14 14 14 14 15 15 16 17 17 19 20 21 22 23 22 23 23 23 24 25 26 28 29 30 29 28 26 26 27 28 29 30 31 32 32 32
56 57 58 60 61 63 63 63 62 61 59 62 63 62 60 58 54 51 49 49 46 41 35 35 35 35 37 37 36 35 33 32 32 32 33 34 33 31 27 22 18 16 16 17 17 17 17 16 15 14 13 12 12 12 12 12 12 13 13 13 13 13 14 14 14 14 15 15 15 15 16 16 17 17 18 19 21 22 23 23 23 23 23 23 24 24 25 26 28 30 30 28 27 26 26 27 28 29 31 32 32 33 32
58 60 62 63 63 62 61 61 63 64 63 64 64 62 58 55 53 51 50 50 46 41 36 35 35 35 36 37 36 35 32 32 31 32 34 34 33 31 27 22 19 18 17 18 18 18 18 16 15 14 13 12 12 12 12 13 13 13 14 14 14 14 14 15 15 15 16 16 17 17 17 18 19 19 21 21 22 23 23 23 23 23 23 24 24 25 26 27 28 29 28 27 26 26 27 28 29 30 31 32 32 33 33
62 64 67 66 65 63 61 63 66 69 69 66 64 60 56 54 53 53 52 52 48 42 37 36 35 35 36 37 36 34 32 31 31 32 34 35 34 31 27 24 21 19 19 19 19 19 18 17 15 14 13 13 12 12 13 13 14 14 15 15 15 15 15 16 16 17 17 18 18 19 19 20 20 21 22 22 22 22 23 23 23 23 24 24 25 25 26 27 28 28 27 27 27 27 28 29 30 31 31 32 33 33 34
67 69 70 69 68 65 63 64 68 72 72 68 64 60 56 55 55 56 54 53 48 43 38 37 35 35 36 37 36 34 32 31 31 33 34 35 34 31 28 25 22 21 20 20 20 19 18 17 16 14 13 13 13 13 13 14 14 15 15 16 16 16 16 17 17 18 19 19 20 21 21 21 21 22 22 22 22 22 22 23 23 24 24 24 25 26 27 27 28 28 28 28 28 28 29 30 30 31 32 32 33 34 34
73 73 72 72 70 67 65 65 68 70 70 68 65 62 59 59 59 58 55 53 49 44 38 37 36 35 36 37 36 35 32 31 32 33 35 35 34 32 29 26 24 22 22 21 21 20 19 17 16 15 14 14 14 14 14 15 15 16 16 17 17 17 17 18 19 19 20 21 22 22 22 22 22 22 22 22 22 22 22 23 23 23 24 25 26 26 27 28 28 28 28 28 29 29 30 30 31 32 32 33 34 34 34
76 75 74 73 70 68 66 66 66 66 66 67 67 66 64 63 62 59 55 54 50 45 39 37 36 36 37 37 37 35 33 32 33 34 35 36 35 33 30 27 25 24 23 23 22 20 19 18 16 15 15 15 15 15 15 16 16 17 17 17 18 18 18 19 20 20 21 22 22 23 23 22 22 22 22 22 22 22 22 23 23 24 24 25 26 27 27 28 28 29 29 29 29 30 30 31 31 32 33 33 34 35 35
76 75 74 72 70 69 68 68 67 65 64 68 69 68 67 65 63 60 56 54 51 46 39 37 36 36 37 38 37 36 34 33 33 35 36 37 36 34 31 28 27 26 25 24 23 21 20 18 17 16 15 15 16 16 16 17 17 18 18 18 18 19 19 20 21 21 22 23 23 23 23 22 22 22 22 22 22 22 23 23 23 24 25 25 26 27 27 28 28 29 29 29 30 30 30 31 31 32 33 33 34 35 35
70 70 70 70 70 69 69 69 68 66 65 69 69 68 68 66 64 61 57 55 52 47 40 37 35 35 36 37 37 36 35 34 34 35 37 37 36 34 32 29 28 27 26 25 24 22 20 19 18 17 16 16 16 17 17 17 18 18 18 19 19 20 20 21 22 22 23 23 23 23 23 23 23 22 22 22 22 23 23 23 24 24 25 26 27 27 27 28 28 29 29 29 30 30 30 31 31 32 33 33 34 35 35
62 62 62 65 67 69 72 72 70 68 67 69 69 68 68 66 64 61 58 56 53 47 40 36 34 34 35 37 37 36 36 35 36 36 37 37 36 35 32 31 29 28 27 26 24 23 21 19 18 17 17 17 17 17 18 18 19 19 19 19 20 21 21 22 22 23 23 23 23 23 23 23 23 23 23 23 23 23 23 24 24 25 26 26 27 27 27 28 28 29 29 29 30 30 30 31 31 32 33 33 34 35 35
54 54 54 59 66 73 77 76 73 70 68 69 69 69 68 66 64 62 59 57 53 48 40 36 34 33 34 35 36 36 37 37 37 37 38 37 36 35 33 32 30 29 28 27 25 23 21 19 18 17 17 18 18 18 18 19 20 20 20 20 20 21 22 22 23 23 23 24 24 24 24 23 23 23 23 23 23 23 24 24 25 25 26 27 27 27 28 28 29 29 30 30 30 30 31 31 32 32 33 33 34 35 35
49 49 49 53 64 76 81 80 78 73 70 70 70 70 68 67 65 62 60 57 53 48 41 36 33 32 33 34 35 36 37 38 38 38 38 38 37 35 34 33 32 30 29 28 26 23 21 19 18 18 18 18 18 19 19 20 20 20 20 20 21 21 22 23 23 24 24 24 24 24 24 24 24 24 23 23 23 24 24 25 25 25 26 27 27 28 28 29 29 30 30 30 30 31 31 31 32 32 33 33 34 35 35
48 48 46 49 61 75 81 83 81 77 72 72 71 70 69 67 65 63 60 57 53 47 41 36 33 32 31 32 34 35 37 38 39 39 39 38 37 35 34 34 33 32 30 28 26 24 21 19 18 18 18 18 19 20 20 21 21 21 20 20 21 21 22 23 24 24 24 24 24 24 24 24 24 24 24 24 24 24 24 25 25 25 26 26 27 28 28 29 29 30 30 31 31 31 31 31 32 32 33 34 34 35 35
49 48 46 46 56 69 80 82 82 79 75 72 71 70 69 67 65 62 59 56 52 47 41 37 34 32 31 31 32 34 36 38 39 40 39 38 37 36 35 35 34 33 31 29 27 24 22 19 18 18 18 19 20 20 21 21 21 21 21 21 21 22 22 23 24 24 25 25 25 25 25 25 24 24 24 24 24 24 24 25 25 25 26 26 27 27 28 29 29 30 30 30 31 31 31 31 32 32 33 33 34 34 34
52 50 48 46 50 60 75 78 80 80 77 72 71 70 70 68 65 62 58 54 50 46 41 38 35 32 30 30 31 33 35 37 39 40 41 39 37 36 35 35 34 33 32 30 27 25 22 20 18 18 18 19 20 21 21 21 21 21 21 21 21 22 23 24 24 25 25 25 25 25 25 25 25 25 24 24 24 25 25 25 25 25 26 26 27 27 28 29 29 30 30 30 31 31 31 31 32 32 33 33 33 33 33
57 55 51 48 49 54 67 74 79 81 79 73 70 69 69 68 66 62 56 52 48 45 41 38 35 33 30 29 30 31 33 36 38 40 41 40 39 37 35 35 34 34 32 31 28 25 22 20 19 18 18 19 21 21 21 21 21 21 21 21 22 22 23 24 25 25 25 25 25 26 26 26 25 25 25 25 25 25 25 25 25 26 26 26 27 27 28 29 29 30 30 30 30 31 31 31 31 31 32 32 32 32 32
64 61 56 52 51 54 64 72 78 81 80 75 72 69 69 69 67 62 55 50 46 44 41 38 36 33 31 29 29 29 31 34 36 38 41 41 40 38 36 35 34 33 33 31 29 26 23 21 19 19 19 20 21 21 21 21 22 22 22 22 22 23 24 25 25 26 26 26 26 26 26 26 26 25 25 25 25 25 25 25 26 26 26 27 27 28 28 29 29 30 30 30 30 30 30 30 30 31 31 31 31 32 33
72 69 61 57 54 58 68 74 79 81 80 77 74 71 70 69 68 64 56 50 45 43 41 38 36 33 31 29 28 28 29 31 33 36 38 39 39 39 37 36 34 34 33 31 29 27 24 21 20 19 19 20 21 21 22 22 22 22 22 22 22 23 24 25 25 26 27 26 26 26 26 26 26 26 26 26 26 25 26 26 26 26 27 27 28 28 29 29 29 30 30 30 30 30 30 30 30 30 30 31 31 32 33
78 75 69 62 59 62 73 78 81 83 82 79 77 74 72 71 69 66 59 51 46 43 41 38 35 33 31 29 28 28 28 29 30 32 34 37 38 38 37 36 35 34 33 32 30 27 24 22 21 20 20 21 21 21 22 22 22 22 22 22 23 23 24 24 25 26 27 27 27 26 26 26 26 26 26 26 26 26 26 27 27 27 28 28 28 29 29 29 30 30 30 30 31 31 30 30 30 30 31 31 32 33 35
82 81 77 69 63 64 75 80 84 85 83 81 79 77 74 72 70 67 62 54 48 43 41 38 35 33 31 30 28 28 27 27 28 28 30 33 35 36 36 35 34 34 33 32 30 28 25 23 21 21 21 21 21 22 22 22 23 23 23 23 23 23 24 24 25 26 26 27 27 27 27 27 27 27 27 27 27 27 27 28 28 28 28 29 29 30 30 30 30 31 31 31 32 32 32 32 32 32 32 33 33 34 35
84 85 83 76 70 68 73 81 85 86 85 83 81 79 76 73 71 68 65 58 51 45 41 38 35 33 31 30 29 28 27 27 26 26 27 29 31 33 34 34 34 34 34 33 31 28 25 23 22 22 22 22 22 22 22 23 23 23 23 23 23 23 24 24 25 25 26 27 27 27 27 27 27 27 28 28 28 28 28 29 29 29 29 29 30 30 30 31 31 31 32 33 33 33 34 34 34 33 33 34 34 34 35
82 85 84 82 78 74 71 76 81 84 84 84 82 79 76 73 70 68 65 62 55 48 42 38 35 33 32 30 29 29 28 27 25 24 24 26 27 29 31 31 33 34 35 34 32 29 26 24 23 23 23 22 22 22 23 23 23 23 23 23 23 23 24 24 25 25 26 26 27 27 27 27 28 28 28 29 29 30 30 30 30 30 30 30 30 30 31 31 32 32 33 33 34 35 35 35 35 34 34 33 33 33 33
76 83 84 83 82 80 76 74 74 77 81 83 82 80 76 72 70 67 65 63 59 51 43 38 35 33 32 31 30 29 29 28 26 24 23 24 25 27 28 30 32 34 35 34 32 29 26 25 24 24 24 24 23 23 23 23 23 24 23 23 23 24 24 25 25 25 25 26 26 27 27 28 28 29 29 30 31 31 32 31 31 31 31 31 31 31 31 32 32 33 33 34 35 35 36 35 35 34 33 33 33 33 33
71 79 84 84 84 83 82 77 72 70 74 81 83 81 76 72 68 66 63 63 60 54 45 38 35 34 33 32 31 30 29 28 27 25 23 23 24 26 27 29 32 34 36 35 33 30 26 25 25 25 25 25 24 24 24 24 24 24 24 24 24 24 24 25 25 25 25 26 26 27 27 28 29 30 30 31 32 33 34 33 33 32 32 32 32 32 32 32 32 33 34 34 35 35 36 35 35 34 33 33 33 34 34
71 77 84 85 85 86 86 82 76 70 68 76 81 81 76 71 68 65 62 62 61 57 48 40 35 34 34 33 32 31 30 29 27 26 24 23 24 26 27 29 32 35 37 36 33 30 27 26 26 26 26 26 25 25 24 24 24 24 24 24 24 24 24 25 25 25 25 26 26 27 28 28 29 30 31 32 33 34 36 35 35 34 33 33 33 33 34 34 34 34 35 34 35 35 35 35 35 35 35 35 35 36 37
75 78 85 86 87 88 87 84 79 74 68 73 77 79 76 72 69 66 63 62 61 58 51 41 36 34 34 34 33 32 31 29 28 26 24 24 25 27 28 30 33 35 37 36 34 30 27 26 26 26 26 26 26 25 25 24 24 24 24 24 24 25 25 25 25 25 25 26 27 27 28 29 30 31 31 32 34 35 36 36 36 35 35 35 36 38 39 39 39 38 37 37 36 35 35 35 36 36 36 37 38 38 39
79 80 86 86 88 89 88 86 82 77 71 71 74 76 75 73 71 69 66 63 62 59 53 43 37 34 34 35 35 34 32 30 28 27 25 25 26 27 29 31 34 36 38 37 34 31 27 26 26 26 27 26 26 26 25 24 24 24 25 25 25 25 25 25 25 25 26 27 27 28 29 30 30 31 31 32 34 35 36 36 36 36 36 37 40 44 46 46 45 44 42 40 39 37 36 36 37 37 38 39 40 40 41
81 80 86 88 89 90 89 87 84 81 75 73 73 74 74 74 75 75 72 68 64 60 54 44 38 35 35 35 35 34 32 31 29 27 26 26 26 28 29 31 34 37 38 37 34 31 27 26 26 27 27 27 26 26 25 25 24 25 25 25 25 25 25 25 26 26 27 28 29 29 30 30 30 31 32 32 34 35 37 37 36 36 36 39 43 48 51 52 52 50 47 45 43 41 40 39 39 39 40 41 41 41 42
82 81 84 88 90 90 90 88 85 82 78 76 74 73 73 76 79 80 79 74 68 62 55 46 39 36 35 36 35 34 33 31 29 28 26 26 27 28 29 32 35 37 39 37 34 31 27 26 26 27 27 27 26 26 25 25 25 25 25 25 25 25 25 26 27 28 29 30 30 31 30 30 31 32 33 34 35 36 38 38 37 36 36 40 45 49 53 56 56 55 52 50 48 46 44 43 41 41 41 42 42 42 43
83 82 83 89 90 90 90 88 86 84 81 80 78 76 74 79 82 84 84 79 73 65 58 48 41 37 36 36 36 35 33 31 30 28 27 27 27 29 30 32 35 37 39 37 34 31 27 27 26 27 27 27 27 26 25 25 25 25 25 25 25 25 26 26 28 30 31 32 32 31 30 31 32 33 34 36 37 39 41 40 39 38 37 41 45 50 55 58 60 59 57 54 51 49 47 45 43 42 41 42 43 44 45
85 83 83 88 90 90 90 89 88 87 85 85 82 79 76 81 85 87 87 82 76 69 61 52 44 38 37 37 36 35 34 32 30 29 27 28 29 30 31 33 35 37 39 37 34 30 27 27 27 27 27 27 27 26 26 26 26 26 26 26 26 26 26 27 29 31 33 34 33 32 31 32 34 35 36 38 40 42 44 44 42 41 39 42 47 53 58 61 61 60 58 55 53 51 50 48 46 44 42 43 44 45 47
88 86 83 88 90 91 91 90 90 90 89 89 85 81 78 83 87 89 89 85 79 73 66 55 46 39 36 36 35 35 34 33 31 29 28 29 30 31 32 34 36 38 38 36 33 30 28 27 27 27 28 28 27 27 26 26 27 27 27 27 27 27 27 28 31 33 34 34 33 33 32 34 36 37 38 40 42 44 46 46 45 44 42 45 49 55 60 62 63 62 59 56 54 53 52 51 50 48 45 45 46 48 49
90 89 85 86 87 89 91 91 91 91 92 91 88 85 81 84 87 89 89 86 82 76 69 59 49 41 36 35 34 34 34 33 32 30 29 30 31 32 33 35 37 38 38 36 33 30 28 28 28 28 28 28 27 27 27 27 28 29 29 29 28 28 28 30 32 34 35 35 34 33 33 35 37 39 41 43 45 46 47 47 47 46 45 46 50 56 60 64 65 64 63 60 58 57 55 54 52 50 48 47 48 50 52
89 88 86 85 84 84 86 90 91 92 92 92 90 88 84 84 85 87 89 87 83 78 71 62 52 43 37 35 34 34 34 33 32 31 30 31 32 33 35 37 38 39 39 36 34 31 29 28 28 29 29 28 28 27 28 29 30 30 30 30 29 29 29 31 33 34 35 35 34 34 34 36 39 42 45 47 47 48 48 48 47 46 45 46 50 54 59 63 65 65 65 63 61 58 56 55 53 51 50 49 50 51 53
87 86 85 84 82 80 79 85 89 91 92 91 91 89 86 84 83 84 86 85 84 80 73 64 54 45 38 36 35 34 34 33 32 31 30 32 33 35 36 38 39 40 39 37 34 32 30 29 29 29 29 29 28 29 29 31 32 32 32 31 30 30 31 33 34 35 35 35 34 34 34 36 41 45 49 50 50 50 49 48 46 45 44 46 49 52 57 60 62 64 65 64 62 60 57 56 54 53 51 51 51 51 53
86 84 83 84 82 78 73 79 86 90 91 91 91 90 88 85 82 80 82 84 84 81 75 66 56 47 40 37 36 35 35 34 33 32 32 33 35 37 38 39 40 41 40 38 35 33 31 31 30 29 29 29 29 31 32 33 34 34 33 32 32 33 34 34 35 35 35 35 34 34 34 37 43 49 53 53 52 50 49 47 45 44 44 46 49 52 55 58 61 63 64 64 63 61 59 57 55 53 53 52 52 53 54
87 85 83 86 84 78 73 75 81 87 90 91 91 90 89 86 81 78 79 82 83 81 77 68 58 49 42 39 37 37 37 35 34 34 34 36 37 39 40 41 42 42 42 39 37 34 32 31 30 30 29 29 31 33 35 36 36 35 33 33 34 35 36 35 35 35 35 35 34 34 34 39 46 52 56 54 52 50 48 46 44 43 43 46 49 52 56 58 61 63 64 64 63 62 60 57 56 55 55 55 55 55 56
88 87 85 89 88 83 75 74 77 82 88 89 90 90 89 86 81 78 77 81 82 81 78 71 61 52 45 41 39 38 38 37 36 36 37 39 41 42 43 44 44 44 43 41 38 36 33 32 31 30 29 31 34 36 38 38 37 36 35 36 38 38 37 36 36 35 36 35 35 34 35 41 49 55 57 55 52 49 47 45 43 43 43 46 50 53 56 59 61 63 63 63 63 62 61 59 58 58 57 57 57 57 58
88 89 87 90 91 88 82 77 76 78 83 86 88 88 87 84 81 78 77 80 82 82 79 72 63 53 46 43 41 40 40 39 38 38 40 44 46 47 46 47 47 47 46 44 41 38 35 34 32 31 31 34 38 40 40 39 38 38 39 40 41 40 38 37 36 36 36 36 35 35 37 45 53 58 58 55 52 50 47 45 43 42 43 47 50 54 57 59 61 62 63 64 63 63 62 61 60 59 59 58 58 59 59
82 88 89 90 91 91 89 83 79 77 78 83 86 87 85 83 81 79 78 81 82 82 79 73 64 55 47 44 42 41 41 40 40 42 46 47 49 49 50 50 50 49 49 47 44 41 38 36 34 34 36 39 42 42 41 40 40 41 43 44 44 42 39 38 37 37 38 37 35 36 39 48 56 59 58 55 53 50 48 45 43 43 44 47 51 54 58 60 62 63 64 64 64 64 63 62 61 60 60 59 59 60 60
72 81 89 90 91 92 92 88 84 81 79 79 79 80 81 81 82 83 82 82 82 81 79 74 66 56 48 44 43 42 42 41 43 45 49 49 48 48 50 51 52 53 53 51 48 45 42 39 38 39 42 45 45 44 42 42 44 46 48 48 46 43 40 39 39 39 39 37 36 37 41 50 57 60 59 56 54 51 48 45 43 43 44 47 51 55 59 61 62 63 64 65 65 65 65 64 63 62 61 61 61 61 60
61 70 81 87 90 91 92 90 87 85 84 82 80 77 77 81 84 87 86 84 82 79 77 74 67 58 50 46 43 43 43 43 44 45 46 47 48 50 51 53 54 55 55 55 52 49 45 42 42 43 47 49 48 46 44 46 48 50 52 51 48 45 42 41 41 40 40 38 37 37 41 49 56 60 60 58 55 52 48 46 45 45 45 47 51 57 61 63 63 64 64 66 66 66 66 65 65 64 64 63 62 61 60
55 61 69 80 86 89 90 91 89 87 86 86 83 80 77 81 86 90 90 86 82 79 77 74 68 61 53 48 46 45 44 45 46 46 46 46 50 55 58 58 58 58 57 57 56 52 47 44 44 45 49 50 50 49 48 50 52 54 55 53 50 46 44 43 43 43 42 39 38 38 40 48 55 60 61 58 54 50 47 48 49 49 47 50 54 60 64 64 64 64 65 66 67 67 67 67 66 66 65 64 62 61 59
52 55 60 69 78 84 87 87 88 88 88 88 86 84 80 82 87 91 92 89 84 79 77 75 69 61 53 50 48 47 47 48 48 48 48 48 52 57 63 61 59 58 58 59 59 56 50 45 45 46 49 49 50 50 51 53 55 56 56 53 50 48 46 46 46 45 44 41 39 38 40 48 55 60 61 57 53 50 50 54 54 53 51 55 59 63 65 64 64 64 65 67 68 68 68 68 68 67 66 64 62 60 59
48 52 55 60 67 76 83 83 84 85 87 88 88 86 84 84 87 91 93 92 87 82 79 76 70 62 53 50 48 48 49 51 52 51 51 50 51 54 59 60 61 61 62 63 61 57 51 46 46 48 50 50 51 52 53 55 56 57 56 53 50 49 48 48 48 47 46 44 41 40 42 49 56 60 60 56 54 54 57 59 59 58 58 61 64 65 66 65 64 65 66 67 68 68 68 68 68 66 65 63 61 60 59
44 49 51 55 60 66 75 80 82 82 83 87 88 88 86 85 87 91 94 93 90 86 83 79 72 64 54 50 48 49 51 54 54 54 53 53 53 53 54 58 61 63 65 65 62 57 50 48 49 52 52 52 53 54 55 56 57 56 55 53 51 50 49 50 50 50 50 47 44 43 44 51 57 60 60 57 57 59 62 63 63 62 63 65 66 67 66 65 64 65 66 67 68 68 68 68 67 65 63 61 60 60 61
40 45 48 50 54 60 66 75 80 81 81 83 87 89 87 86 88 92 94 94 92 89 85 81 75 66 56 51 49 50 53 56 56 56 54 55 56 57 57 56 57 58 61 61 59 55 50 49 52 55 55 53 54 55 56 57 57 56 54 53 52 52 52 53 54 55 54 51 47 46 47 54 59 62 62 61 61 63 65 65 64 64 65 66 67 67 66 65 65 65 66 67 67 67 67 67 66 64 62 61 60 61 62
36 41 45 47 50 55 60 69 76 80 80 80 83 87 87 87 89 92 94 94 92 90 87 83 76 68 58 52 50 51 54 56 57 57 56 57 58 59 61 59 57 57 58 57 55 52 50 51 52 54 55 54 55 56 57 58 57 56 55 54 54 54 55 56 58 58 57 52 48 47 50 56 61 64 63 63 63 64 65 64 64 64 66 68 68 68 67 66 66 66 67 68 67 67 67 67 65 63 61 60 60 61 63
32 38 43 44 47 50 55 63 71 77 79 79 81 85 88 88 90 92 93 94 92 91 89 85 78 69 59 53 51 52 55 56 56 57 59 61 62 62 63 63 62 62 60 58 56 53 51 52 53 53 54 56 57 57 57 57 57 56 55 55 55 56 58 59 60 60 58 52 49 48 53 59 63 65 64 63 63 64 64 63 63 64 67 68 68 68 67 67 67 68 68 68 68 68 68 66 65 63 60 60 61 62 64
29 36 42 44 45 47 51 57 65 73 77 79 81 84 88 89 90 92 93 93 93 92 90 87 80 70 59 53 52 53 56 57 57 57 59 62 64 64 64 65 65 63 62 60 58 56 54 53 52 53 54 56 57 58 58 57 56 56 56 56 57 58 59 61 61 59 56 51 50 51 57 63 65 65 64 62 62 63 63 62 63 65 67 69 69 69 68 68 68 69 69 69 69 69 68 67 65 63 61 61 61 63 63
27 35 41 45 45 46 47 52 60 69 75 78 80 83 88 88 90 91 93 92 92 92 91 88 82 72 60 53 51 53 56 58 59 58 58 60 62 63 65 67 66 64 62 61 59 58 56 55 55 54 54 54 56 58 58 57 56 56 57 57 58 60 61 61 60 58 55 52 53 57 62 65 66 65 63 62 63 63 63 63 64 66 68 69 70 70 69 70 70 71 71 71 70 70 69 68 66 64 62 62 62 62 62